Time,TemperatureF,DewpointF,PressureIn,WindDirection,WindDirectionDegrees,WindSpeedMPH,WindSpeedGustMPH,Humidity,HourlyPrecipIn,Conditions,Clouds,dailyrainin,SoftwareType,DateUTC
2013-08-19 00:01:00,62.4,60.0,30.10,SW,229,0.0,0.0,92,0.00,,,0.00,WeatherCatV1.02B3,2013-08-19 04:01:00,
2013-08-19 00:06:00,62.3,59.9,30.10,SW,229,0.0,0.0,92,0.00,,,0.00,WeatherCatV1.02B3,2013-08-19 04:06:00,
2013-08-19 00:11:00,62.3,59.9,30.10,SW,229,0.0,0.0,92,0.00,,,0.00,WeatherCatV1.02B3,2013-08-19 04:11:00,
2013-08-19 00:16:00,62.3,59.9,30.10,West,270,0.0,0.0,92,0.00,,,0.00,WeatherCatV1.02B3,2013-08-19 04:16:00,
2013-08-19 00:21:00,62.3,59.9,30.10,SW,221,1.0,1.0,92,0.00,,,0.00,WeatherCatV1.02B3,2013-08-19 04:21:00,
2013-08-19 00:26:00,62.3,59.9,30.10,SW,234,0.0,3.0,92,0.00,,,0.00,WeatherCatV1.02B3,2013-08-19 04:26:00,
2013-08-19 00:31:00,62.3,59.6,30.10,SW,225,0.0,3.0,91,0.00,,,0.00,WeatherCatV1.02B3,2013-08-19 04:31:00,
2013-08-19 00:36:00,62.5,59.8,30.10,SW,236,5.0,5.0,91,0.00,,,0.00,WeatherCatV1.02B3,2013-08-19 04:36:00,
2013-08-19 00:41:00,62.6,59.9,30.10,WSW,244,0.0,0.0,91,0.00,,,0.00,WeatherCatV1.02B3,2013-08-19 04:41:00,
2013-08-19 00:46:00,62.7,60.0,30.09,SSW,213,0.0,3.0,91,0.00,,,0.00,WeatherCatV1.02B3,2013-08-19 04:46:00,
2013-08-19 00:51:00,62.7,59.7,30.09,WSW,248,0.0,0.0,90,0.00,,,0.00,WeatherCatV1.02B3,2013-08-19 04:51:00,
2013-08-19 00:56:00,62.7,59.7,30.09,SW,227,0.0,6.0,90,0.00,,,0.00,WeatherCatV1.02B3,2013-08-19 04:56:00,
2013-08-19 01:01:00,62.8,59.8,30.09,West,269,0.0,1.0,90,0.00,,,0.00,WeatherCatV1.02B3,2013-08-19 05:01:00,
2013-08-19 01:06:00,62.8,59.8,30.09,West,274,7.0,7.0,90,0.00,,,0.00,WeatherCatV1.02B3,2013-08-19 05:06:00,
2013-08-19 01:11:00,62.8,59.5,30.09,WSW,254,0.0,4.0,89,0.00,,,0.00,WeatherCatV1.02B3,2013-08-19 05:11:00,
2013-08-19 01:16:00,62.8,59.5,30.08,WNW,297,0.0,3.0,89,0.00,,,0.00,WeatherCatV1.02B3,2013-08-19 05:16:00,
2013-08-19 01:21:00,62.7,59.4,30.09,West,277,0.0,0.0,89,0.00,,,0.00,WeatherCatV1.02B3,2013-08-19 05:21:00,
2013-08-19 01:26:00,62.7,59.4,30.08,SW,236,1.0,2.0,89,0.00,,,0.00,WeatherCatV1.02B3,2013-08-19 05:26:00,
2013-08-19 01:31:00,62.5,59.2,30.08,SW,234,0.0,4.0,89,0.00,,,0.00,WeatherCatV1.02B3,2013-08-19 05:31:00,
2013-08-19 01:36:00,62.4,59.1,30.08,West,277,0.0,0.0,89,0.00,,,0.00,WeatherCatV1.02B3,2013-08-19 05:36:00,
2013-08-19 01:41:00,62.3,59.3,30.08,West,261,1.0,5.0,90,0.00,,,0.00,WeatherCatV1.02B3,2013-08-19 05:41:00,
2013-08-19 01:46:00,62.3,59.3,30.08,WSW,237,0.0,3.0,90,0.00,,,0.00,WeatherCatV1.02B3,2013-08-19 05:46:00,
2013-08-19 01:51:00,62.3,59.3,30.08,West,263,1.0,3.0,90,0.00,,,0.00,WeatherCatV1.02B3,2013-08-19 05:51:00,
2013-08-19 01:56:00,62.2,59.2,30.08,West,263,0.0,4.0,90,0.00,,,0.00,WeatherCatV1.02B3,2013-08-19 05:56:00,
2013-08-19 02:01:00,62.2,59.2,30.08,WSW,238,1.0,1.0,90,0.00,,,0.00,WeatherCatV1.02B3,2013-08-19 06:01:00,
2013-08-19 02:06:00,62.1,58.8,30.08,SW,232,3.0,9.0,89,0.00,,,0.00,WeatherCatV1.02B3,2013-08-19 06:06:00,
2013-08-19 02:11:00,62.1,58.8,30.08,SW,222,0.0,1.0,89,0.00,,,0.00,WeatherCatV1.02B3,2013-08-19 06:11:00,
2013-08-19 02:16:00,62.1,58.8,30.08,West,263,4.0,4.0,89,0.00,,,0.00,WeatherCatV1.02B3,2013-08-19 06:16:00,
2013-08-19 02:21:00,62.0,58.7,30.07,WNW,286,2.0,6.0,89,0.00,,,0.00,WeatherCatV1.02B3,2013-08-19 06:21:00,
2013-08-19 02:26:00,62.0,58.7,30.07,West,262,0.0,5.0,89,0.00,,,0.00,WeatherCatV1.02B3,2013-08-19 06:26:00,
2013-08-19 02:31:00,62.0,58.7,30.07,West,262,1.0,7.0,89,0.00,,,0.00,WeatherCatV1.02B3,2013-08-19 06:31:00,
2013-08-19 02:36:00,62.0,58.4,30.07,West,276,2.0,7.0,88,0.00,,,0.00,WeatherCatV1.02B3,2013-08-19 06:36:00,
2013-08-19 02:41:00,62.1,58.5,30.07,WNW,286,0.0,5.0,88,0.00,,,0.00,WeatherCatV1.02B3,2013-08-19 06:41:00,
2013-08-19 02:46:00,62.1,58.5,30.07,WNW,283,0.0,12.0,88,0.00,,,0.00,WeatherCatV1.02B3,2013-08-19 06:46:00,
2013-08-19 02:51:00,62.0,58.4,30.07,South,189,1.0,4.0,88,0.00,,,0.00,WeatherCatV1.02B3,2013-08-19 06:51:00,
2013-08-19 02:56:00,62.0,58.4,30.07,WNW,294,0.0,6.0,88,0.00,,,0.00,WeatherCatV1.02B3,2013-08-19 06:56:00,
2013-08-19 03:01:00,62.0,58.4,30.07,WSW,240,0.0,8.0,88,0.00,,,0.00,WeatherCatV1.02B3,2013-08-19 07:01:00,
2013-08-19 03:06:00,61.9,58.0,30.07,West,267,1.0,7.0,87,0.00,,,0.00,WeatherCatV1.02B3,2013-08-19 07:06:00,
2013-08-19 03:11:00,61.9,58.0,30.07,West,271,1.0,5.0,87,0.00,,,0.00,WeatherCatV1.02B3,2013-08-19 07:11:00,
2013-08-19 03:16:00,61.8,57.9,30.07,WNW,288,3.0,8.0,87,0.00,,,0.00,WeatherCatV1.02B3,2013-08-19 07:16:00,
2013-08-19 03:21:00,61.8,58.2,30.07,West,269,0.0,4.0,88,0.00,,,0.00,WeatherCatV1.02B3,2013-08-19 07:21:00,
2013-08-19 03:26:00,61.7,58.1,30.07,West,277,2.0,5.0,88,0.00,,,0.00,WeatherCatV1.02B3,2013-08-19 07:26:00,
2013-08-19 03:31:00,61.6,58.0,30.07,WNW,295,1.0,5.0,88,0.00,,,0.00,WeatherCatV1.02B3,2013-08-19 07:31:00,
2013-08-19 03:36:00,61.6,58.0,30.07,West,262,2.0,6.0,88,0.00,,,0.00,WeatherCatV1.02B3,2013-08-19 07:36:00,
2013-08-19 03:41:00,61.6,58.0,30.07,WSW,254,0.0,4.0,88,0.00,,,0.00,WeatherCatV1.02B3,2013-08-19 07:41:00,
2013-08-19 03:46:00,61.6,58.3,30.07,WNW,284,0.0,6.0,89,0.00,,,0.00,WeatherCatV1.02B3,2013-08-19 07:46:00,
2013-08-19 03:51:00,61.6,58.3,30.07,WSW,256,3.0,6.0,89,0.00,,,0.00,WeatherCatV1.02B3,2013-08-19 07:51:00,
2013-08-19 03:56:00,61.6,58.3,30.07,West,261,0.0,3.0,89,0.00,,,0.00,WeatherCatV1.02B3,2013-08-19 07:56:00,
2013-08-19 04:01:00,61.6,58.3,30.07,West,259,0.0,4.0,89,0.00,,,0.00,WeatherCatV1.02B3,2013-08-19 08:01:00,
2013-08-19 04:06:00,61.5,58.2,30.06,West,260,3.0,3.0,89,0.00,,,0.00,WeatherCatV1.02B3,2013-08-19 08:06:00,
2013-08-19 04:11:00,61.5,58.2,30.06,West,261,0.0,1.0,89,0.00,,,0.00,WeatherCatV1.02B3,2013-08-19 08:11:00,
2013-08-19 04:16:00,61.4,58.1,30.06,West,261,0.0,3.0,89,0.00,,,0.00,WeatherCatV1.02B3,2013-08-19 08:16:00,
2013-08-19 04:22:00,61.4,58.1,30.06,West,261,0.0,3.0,89,0.00,,,0.00,WeatherCatV1.02B3,2013-08-19 08:22:00,
2013-08-19 04:27:00,61.4,58.4,30.06,WSW,248,0.0,6.0,90,0.00,,,0.00,WeatherCatV1.02B3,2013-08-19 08:27:00,
2013-08-19 04:32:00,61.4,58.4,30.06,West,279,3.0,6.0,90,0.00,,,0.00,WeatherCatV1.02B3,2013-08-19 08:32:00,
2013-08-19 04:37:00,61.4,58.4,30.07,West,280,4.0,4.0,90,0.00,,,0.00,WeatherCatV1.02B3,2013-08-19 08:37:00,
2013-08-19 04:42:00,61.4,58.4,30.07,West,259,0.0,4.0,90,0.00,,,0.00,WeatherCatV1.02B3,2013-08-19 08:42:00,
2013-08-19 04:47:00,61.3,58.3,30.07,South,189,0.0,0.0,90,0.00,,,0.00,WeatherCatV1.02B3,2013-08-19 08:47:00,
2013-08-19 04:52:00,61.3,58.3,30.07,SW,217,0.0,4.0,90,0.00,,,0.00,WeatherCatV1.02B3,2013-08-19 08:52:00,
2013-08-19 04:57:00,61.3,58.3,30.07,WSW,249,0.0,5.0,90,0.00,,,0.00,WeatherCatV1.02B3,2013-08-19 08:57:00,
2013-08-19 05:02:00,61.3,58.6,30.07,WSW,246,0.0,4.0,91,0.00,,,0.00,WeatherCatV1.02B3,2013-08-19 09:02:00,
2013-08-19 05:07:00,61.3,58.6,30.07,West,263,0.0,0.0,91,0.00,,,0.00,WeatherCatV1.02B3,2013-08-19 09:07:00,
2013-08-19 05:12:00,61.3,58.6,30.07,WSW,238,0.0,0.0,91,0.00,,,0.00,WeatherCatV1.02B3,2013-08-19 09:12:00,
2013-08-19 05:17:00,61.2,58.5,30.06,WSW,242,0.0,4.0,91,0.00,,,0.00,WeatherCatV1.02B3,2013-08-19 09:17:00,
2013-08-19 05:22:00,61.2,58.5,30.07,WSW,248,0.0,6.0,91,0.00,,,0.00,WeatherCatV1.02B3,2013-08-19 09:22:00,
2013-08-19 05:27:00,61.1,58.4,30.07,SSW,205,0.0,5.0,91,0.00,,,0.00,WeatherCatV1.02B3,2013-08-19 09:27:00,
2013-08-19 05:32:00,61.1,58.4,30.07,West,260,5.0,5.0,91,0.00,,,0.00,WeatherCatV1.02B3,2013-08-19 09:32:00,
2013-08-19 05:37:00,61.0,58.3,30.07,SW,228,0.0,7.0,91,0.00,,,0.00,WeatherCatV1.02B3,2013-08-19 09:37:00,
2013-08-19 05:42:00,61.0,58.7,30.07,WNW,294,5.0,5.0,92,0.00,,,0.00,WeatherCatV1.02B3,2013-08-19 09:42:00,
2013-08-19 05:47:00,61.0,58.7,30.07,West,263,5.0,5.0,92,0.00,,,0.00,WeatherCatV1.02B3,2013-08-19 09:47:00,
2013-08-19 05:52:00,61.0,58.7,30.07,West,281,0.0,6.0,92,0.00,,,0.00,WeatherCatV1.02B3,2013-08-19 09:52:00,
2013-08-19 05:57:00,61.0,58.7,30.07,WSW,255,5.0,7.0,92,0.00,,,0.00,WeatherCatV1.02B3,2013-08-19 09:57:00,
2013-08-19 06:03:00,61.1,58.8,30.07,West,260,6.0,6.0,92,0.00,,,0.00,WeatherCatV1.02B3,2013-08-19 10:03:00,
2013-08-19 06:08:00,61.1,58.8,30.07,WSW,257,2.0,6.0,92,0.00,,,0.00,WeatherCatV1.02B3,2013-08-19 10:08:00,
2013-08-19 06:13:00,61.1,58.8,30.07,WSW,240,2.0,6.0,92,0.00,,,0.00,WeatherCatV1.02B3,2013-08-19 10:13:00,
2013-08-19 06:18:00,61.2,58.9,30.07,SW,219,4.0,5.0,92,0.00,,,0.00,WeatherCatV1.02B3,2013-08-19 10:18:00,
2013-08-19 06:23:00,61.3,59.0,30.07,West,273,0.0,8.0,92,0.00,,,0.00,WeatherCatV1.02B3,2013-08-19 10:23:00,
2013-08-19 06:28:00,61.4,58.7,30.07,SW,215,4.0,5.0,91,0.00,,,0.00,WeatherCatV1.02B3,2013-08-19 10:28:00,
2013-08-19 06:33:00,61.6,58.9,30.07,SW,224,0.0,3.0,91,0.00,,,0.00,WeatherCatV1.02B3,2013-08-19 10:33:00,
2013-08-19 06:38:00,61.7,59.0,30.07,SW,223,0.0,5.0,91,0.00,,,0.00,WeatherCatV1.02B3,2013-08-19 10:38:00,
2013-08-19 06:43:00,61.8,59.1,30.07,SW,217,0.0,5.0,91,0.00,,,0.00,WeatherCatV1.02B3,2013-08-19 10:43:00,
2013-08-19 06:48:00,62.0,59.3,30.07,West,277,0.0,0.0,91,0.00,,,0.00,WeatherCatV1.02B3,2013-08-19 10:48:00,
2013-08-19 06:53:00,62.1,59.4,30.07,WSW,245,0.0,6.0,91,0.00,,,0.00,WeatherCatV1.02B3,2013-08-19 10:53:00,
2013-08-19 06:58:00,62.2,59.5,30.07,SW,223,2.0,2.0,91,0.00,,,0.00,WeatherCatV1.02B3,2013-08-19 10:58:00,
2013-08-19 07:03:00,62.3,59.6,30.07,WSW,246,0.0,7.0,91,0.00,,,0.00,WeatherCatV1.02B3,2013-08-19 11:03:00,
2013-08-19 07:08:00,62.5,59.5,30.07,SSW,202,2.0,6.0,90,0.00,,,0.00,WeatherCatV1.02B3,2013-08-19 11:08:00,
2013-08-19 07:13:00,62.5,59.5,30.07,WSW,245,2.0,6.0,90,0.00,,,0.00,WeatherCatV1.02B3,2013-08-19 11:13:00,
2013-08-19 07:18:00,62.7,59.7,30.07,SW,222,3.0,5.0,90,0.00,,,0.00,WeatherCatV1.02B3,2013-08-19 11:18:00,
2013-08-19 07:23:00,62.8,59.8,30.07,SW,229,0.0,7.0,90,0.00,,,0.00,WeatherCatV1.02B3,2013-08-19 11:23:00,
2013-08-19 07:28:00,63.0,59.7,30.07,SW,226,1.0,5.0,89,0.00,,,0.00,WeatherCatV1.02B3,2013-08-19 11:28:00,
2013-08-19 07:33:00,63.2,59.9,30.07,SW,220,3.0,7.0,89,0.00,,,0.00,WeatherCatV1.02B3,2013-08-19 11:33:00,
2013-08-19 07:38:00,63.4,60.1,30.07,West,260,0.0,3.0,89,0.00,,,0.00,WeatherCatV1.02B3,2013-08-19 11:38:00,
2013-08-19 07:43:00,63.6,60.3,30.07,WSW,256,3.0,5.0,89,0.00,,,0.00,WeatherCatV1.02B3,2013-08-19 11:43:00,
2013-08-19 07:48:00,63.8,60.5,30.07,SW,232,5.0,5.0,89,0.00,,,0.00,WeatherCatV1.02B3,2013-08-19 11:48:00,
2013-08-19 07:53:00,64.0,60.4,30.06,WSW,241,3.0,6.0,88,0.00,,,0.00,WeatherCatV1.02B3,2013-08-19 11:53:00,
2013-08-19 07:58:00,64.3,60.7,30.06,SSW,205,4.0,4.0,88,0.00,,,0.00,WeatherCatV1.02B3,2013-08-19 11:58:00,
2013-08-19 08:03:00,64.7,61.1,30.06,West,273,7.0,7.0,88,0.00,,,0.00,WeatherCatV1.02B3,2013-08-19 12:03:00,
2013-08-19 08:08:00,65.2,61.2,30.06,WNW,299,0.0,3.0,87,0.00,,,0.00,WeatherCatV1.02B3,2013-08-19 12:08:00,
2013-08-19 08:13:00,65.7,61.4,30.07,WNW,294,0.0,5.0,86,0.00,,,0.00,WeatherCatV1.02B3,2013-08-19 12:13:00,
2013-08-19 08:18:00,66.3,61.6,30.07,West,269,1.0,9.0,85,0.00,,,0.00,WeatherCatV1.02B3,2013-08-19 12:18:00,
2013-08-19 08:23:00,66.8,61.8,30.07,West,281,4.0,8.0,84,0.00,,,0.00,WeatherCatV1.02B3,2013-08-19 12:23:00,
2013-08-19 08:28:00,67.3,62.0,30.07,WNW,299,6.0,7.0,83,0.00,,,0.00,WeatherCatV1.02B3,2013-08-19 12:28:00,
2013-08-19 08:33:00,67.7,62.3,30.07,WNW,290,4.0,8.0,83,0.00,,,0.00,WeatherCatV1.02B3,2013-08-19 12:33:00,
2013-08-19 08:38:00,68.2,62.8,30.06,West,281,4.0,7.0,83,0.00,,,0.00,WeatherCatV1.02B3,2013-08-19 12:38:00,
2013-08-19 08:43:00,68.7,62.6,30.06,West,272,2.0,6.0,81,0.00,,,0.00,WeatherCatV1.02B3,2013-08-19 12:43:00,
2013-08-19 08:48:00,69.1,62.7,30.06,WSW,249,2.0,6.0,80,0.00,,,0.00,WeatherCatV1.02B3,2013-08-19 12:48:00,
2013-08-19 08:53:00,69.5,63.4,30.05,WNW,298,4.0,5.0,81,0.00,,,0.00,WeatherCatV1.02B3,2013-08-19 12:53:00,
2013-08-19 08:58:00,69.8,62.6,30.05,WNW,288,5.0,8.0,78,0.00,,,0.00,WeatherCatV1.02B3,2013-08-19 12:58:00,
2013-08-19 09:03:00,70.1,62.9,30.05,WNW,292,4.0,6.0,78,0.00,,,0.00,WeatherCatV1.02B3,2013-08-19 13:03:00,
2013-08-19 09:08:00,70.6,63.8,30.05,WSW,239,4.0,7.0,79,0.00,,,0.00,WeatherCatV1.02B3,2013-08-19 13:08:00,
2013-08-19 09:13:00,71.3,63.7,30.05,WSW,247,0.0,6.0,77,0.00,,,0.00,WeatherCatV1.02B3,2013-08-19 13:13:00,
2013-08-19 09:18:00,71.7,63.3,30.05,WNW,291,5.0,8.0,75,0.00,,,0.00,WeatherCatV1.02B3,2013-08-19 13:18:00,
2013-08-19 09:23:00,72.1,63.7,30.05,West,270,4.0,7.0,75,0.00,,,0.00,WeatherCatV1.02B3,2013-08-19 13:23:00,
2013-08-19 09:28:00,72.5,63.7,30.05,West,274,3.0,6.0,74,0.00,,,0.00,WeatherCatV1.02B3,2013-08-19 13:28:00,
2013-08-19 09:33:00,72.8,64.0,30.05,SW,230,0.0,7.0,74,0.00,,,0.00,WeatherCatV1.02B3,2013-08-19 13:33:00,
2013-08-19 09:38:00,73.2,63.6,30.05,West,273,7.0,10.0,72,0.00,,,0.00,WeatherCatV1.02B3,2013-08-19 13:38:00,
2013-08-19 09:43:00,73.3,62.9,30.05,West,267,3.0,6.0,70,0.00,,,0.00,WeatherCatV1.02B3,2013-08-19 13:43:00,
2013-08-19 09:48:00,73.6,62.8,30.05,West,271,0.0,7.0,69,0.00,,,0.00,WeatherCatV1.02B3,2013-08-19 13:48:00,
2013-08-19 09:53:00,73.8,63.4,30.04,WNW,291,8.0,8.0,70,0.00,,,0.00,WeatherCatV1.02B3,2013-08-19 13:53:00,
2013-08-19 09:58:00,74.0,63.2,30.04,West,266,5.0,7.0,69,0.00,,,0.00,WeatherCatV1.02B3,2013-08-19 13:58:00,
2013-08-19 10:03:00,74.3,63.5,30.04,NW,304,2.0,6.0,69,0.00,,,0.00,WeatherCatV1.02B3,2013-08-19 14:03:00,
2013-08-19 10:08:00,74.6,63.3,30.04,West,271,5.0,6.0,68,0.00,,,0.00,WeatherCatV1.02B3,2013-08-19 14:08:00,
2013-08-19 10:13:00,74.6,63.7,30.04,West,272,3.0,4.0,69,0.00,,,0.00,WeatherCatV1.02B3,2013-08-19 14:13:00,
2013-08-19 10:18:00,74.7,63.4,30.04,WNW,295,0.0,1.0,68,0.00,,,0.00,WeatherCatV1.02B3,2013-08-19 14:18:00,
2013-08-19 10:23:00,74.8,62.7,30.04,WSW,237,2.0,8.0,66,0.00,,,0.00,WeatherCatV1.02B3,2013-08-19 14:23:00,
2013-08-19 10:28:00,75.1,61.6,30.04,West,269,0.0,0.0,63,0.00,,,0.00,WeatherCatV1.02B3,2013-08-19 14:28:00,
2013-08-19 10:33:00,75.5,61.5,30.04,West,275,3.0,6.0,62,0.00,,,0.00,WeatherCatV1.02B3,2013-08-19 14:33:00,
2013-08-19 10:38:00,75.6,62.1,30.03,West,261,0.0,2.0,63,0.00,,,0.00,WeatherCatV1.02B3,2013-08-19 14:38:00,
2013-08-19 10:43:00,75.6,61.6,30.03,West,281,8.0,8.0,62,0.00,,,0.00,WeatherCatV1.02B3,2013-08-19 14:43:00,
2013-08-19 10:48:00,75.7,61.7,30.03,WNW,290,5.0,6.0,62,0.00,,,0.00,WeatherCatV1.02B3,2013-08-19 14:48:00,
2013-08-19 10:53:00,76.1,61.7,30.02,West,261,4.0,5.0,61,0.00,,,0.00,WeatherCatV1.02B3,2013-08-19 14:53:00,
2013-08-19 10:58:00,76.5,62.5,30.02,WNW,288,3.0,6.0,62,0.00,,,0.00,WeatherCatV1.02B3,2013-08-19 14:58:00,
2013-08-19 11:03:00,76.7,63.1,30.03,NW,308,6.0,6.0,63,0.00,,,0.00,WeatherCatV1.02B3,2013-08-19 15:03:00,
2013-08-19 11:08:00,76.9,63.3,30.03,South,182,0.0,3.0,63,0.00,,,0.00,WeatherCatV1.02B3,2013-08-19 15:08:00,
2013-08-19 11:13:00,77.1,61.6,30.02,NW,309,2.0,8.0,59,0.00,,,0.00,WeatherCatV1.02B3,2013-08-19 15:13:00,
2013-08-19 11:18:00,77.2,61.3,30.02,WNW,302,0.0,0.0,58,0.00,,,0.00,WeatherCatV1.02B3,2013-08-19 15:18:00,
2013-08-19 11:23:00,77.6,61.6,30.02,North,351,0.0,0.0,58,0.00,,,0.00,WeatherCatV1.02B3,2013-08-19 15:23:00,
2013-08-19 11:28:00,77.5,60.5,30.03,WNW,292,0.0,4.0,56,0.00,,,0.00,WeatherCatV1.02B3,2013-08-19 15:28:00,
2013-08-19 11:33:00,77.8,60.3,30.02,WNW,300,0.0,1.0,55,0.00,,,0.00,WeatherCatV1.02B3,2013-08-19 15:33:00,
2013-08-19 11:38:00,77.8,60.8,30.02,North,5,0.0,3.0,56,0.00,,,0.00,WeatherCatV1.02B3,2013-08-19 15:38:00,
2013-08-19 11:43:00,77.6,61.1,30.02,WNW,296,0.0,1.0,57,0.00,,,0.00,WeatherCatV1.02B3,2013-08-19 15:43:00,
2013-08-19 11:48:00,77.3,61.3,30.02,WNW,296,0.0,0.0,58,0.00,,,0.00,WeatherCatV1.02B3,2013-08-19 15:48:00,
2013-08-19 11:55:00,76.8,59.9,30.02,WNW,296,0.0,0.0,56,0.00,,,0.00,WeatherCatV1.02B3,2013-08-19 15:55:00,
2013-08-19 12:00:00,76.7,59.3,30.02,WNW,296,0.0,1.0,55,0.00,,,0.00,WeatherCatV1.02B3,2013-08-19 16:00:00,
2013-08-19 12:05:00,77.3,60.9,30.02,WNW,296,0.0,1.0,57,0.00,,,0.00,WeatherCatV1.02B3,2013-08-19 16:05:00,
2013-08-19 12:10:00,77.8,60.3,30.02,SW,236,4.0,4.0,55,0.00,,,0.00,WeatherCatV1.02B3,2013-08-19 16:10:00,
2013-08-19 12:15:00,78.0,59.5,30.02,West,267,0.0,8.0,53,0.00,,,0.00,WeatherCatV1.02B3,2013-08-19 16:15:00,
2013-08-19 12:20:00,77.7,59.7,30.02,WNW,286,0.0,3.0,54,0.00,,,0.00,WeatherCatV1.02B3,2013-08-19 16:20:00,
2013-08-19 12:25:00,77.9,56.6,30.02,West,277,0.0,2.0,48,0.00,,,0.00,WeatherCatV1.02B3,2013-08-19 16:25:00,
2013-08-19 12:30:00,78.0,58.4,30.01,SW,225,0.0,6.0,51,0.00,,,0.00,WeatherCatV1.02B3,2013-08-19 16:30:00,
2013-08-19 12:35:00,78.4,59.8,30.01,WNW,298,6.0,6.0,53,0.00,,,0.00,WeatherCatV1.02B3,2013-08-19 16:35:00,
2013-08-19 12:40:00,78.6,61.1,30.01,West,263,1.0,2.0,55,0.00,,,0.00,WeatherCatV1.02B3,2013-08-19 16:40:00,
2013-08-19 12:45:00,78.8,60.7,30.01,WNW,292,0.0,1.0,54,0.00,,,0.00,WeatherCatV1.02B3,2013-08-19 16:45:00,
2013-08-19 12:50:00,79.1,61.0,30.01,West,274,4.0,5.0,54,0.00,,,0.00,WeatherCatV1.02B3,2013-08-19 16:50:00,
2013-08-19 12:55:00,78.9,59.2,30.01,West,279,3.0,5.0,51,0.00,,,0.00,WeatherCatV1.02B3,2013-08-19 16:55:00,
2013-08-19 13:00:00,79.0,61.9,30.01,SSW,212,2.0,6.0,56,0.00,,,0.00,WeatherCatV1.02B3,2013-08-19 17:00:00,
2013-08-19 13:05:00,79.2,60.0,30.00,WNW,285,0.0,5.0,52,0.00,,,0.00,WeatherCatV1.02B3,2013-08-19 17:05:00,
2013-08-19 13:10:00,79.1,60.5,30.00,WNW,290,7.0,7.0,53,0.00,,,0.00,WeatherCatV1.02B3,2013-08-19 17:10:00,
2013-08-19 13:15:00,78.9,60.8,30.00,NW,309,0.0,1.0,54,0.00,,,0.00,WeatherCatV1.02B3,2013-08-19 17:15:00,
2013-08-19 13:20:00,79.3,61.2,30.00,West,262,3.0,3.0,54,0.00,,,0.00,WeatherCatV1.02B3,2013-08-19 17:20:00,
2013-08-19 13:25:00,79.3,61.7,30.00,West,269,7.0,10.0,55,0.00,,,0.00,WeatherCatV1.02B3,2013-08-19 17:25:00,
2013-08-19 13:30:00,79.1,63.0,30.00,WSW,250,0.0,0.0,58,0.00,,,0.00,WeatherCatV1.02B3,2013-08-19 17:30:00,
2013-08-19 13:35:00,79.1,61.5,30.00,WNW,285,0.0,7.0,55,0.00,,,0.00,WeatherCatV1.02B3,2013-08-19 17:35:00,
2013-08-19 13:40:00,79.1,63.0,30.00,WSW,242,0.0,5.0,58,0.00,,,0.00,WeatherCatV1.02B3,2013-08-19 17:40:00,
2013-08-19 13:45:00,79.3,63.7,30.00,WNW,293,0.0,5.0,59,0.00,,,0.00,WeatherCatV1.02B3,2013-08-19 17:45:00,
2013-08-19 13:50:00,79.2,62.6,29.99,West,281,3.0,8.0,57,0.00,,,0.00,WeatherCatV1.02B3,2013-08-19 17:50:00,
2013-08-19 13:55:00,79.0,62.9,29.99,West,281,4.0,7.0,58,0.00,,,0.00,WeatherCatV1.02B3,2013-08-19 17:55:00,
2013-08-19 14:00:00,79.2,62.6,29.99,WNW,287,4.0,6.0,57,0.00,,,0.00,WeatherCatV1.02B3,2013-08-19 18:00:00,
2013-08-19 14:05:00,79.1,62.5,29.99,West,277,4.0,4.0,57,0.00,,,0.00,WeatherCatV1.02B3,2013-08-19 18:05:00,
2013-08-19 14:10:00,79.2,63.6,29.99,SSW,213,3.0,5.0,59,0.00,,,0.00,WeatherCatV1.02B3,2013-08-19 18:10:00,
2013-08-19 14:15:00,79.1,63.5,29.99,West,275,2.0,3.0,59,0.00,,,0.00,WeatherCatV1.02B3,2013-08-19 18:15:00,
2013-08-19 14:20:00,79.0,63.4,29.99,WNW,295,0.0,5.0,59,0.00,,,0.00,WeatherCatV1.02B3,2013-08-19 18:20:00,
2013-08-19 14:25:00,79.0,62.9,29.99,WNW,292,0.0,5.0,58,0.00,,,0.00,WeatherCatV1.02B3,2013-08-19 18:25:00,
2013-08-19 14:30:00,79.1,64.5,29.99,WNW,292,0.0,0.0,61,0.00,,,0.00,WeatherCatV1.02B3,2013-08-19 18:30:00,
2013-08-19 14:35:00,79.1,62.0,29.99,WNW,288,0.0,4.0,56,0.00,,,0.00,WeatherCatV1.02B3,2013-08-19 18:35:00,
2013-08-19 14:40:00,78.8,62.8,29.99,WNW,288,0.0,3.0,58,0.00,,,0.00,WeatherCatV1.02B3,2013-08-19 18:40:00,
2013-08-19 14:45:00,78.9,62.8,29.99,West,266,0.0,8.0,58,0.00,,,0.00,WeatherCatV1.02B3,2013-08-19 18:45:00,
2013-08-19 14:50:00,78.8,62.8,29.99,WNW,300,0.0,5.0,58,0.00,,,0.00,WeatherCatV1.02B3,2013-08-19 18:50:00,
2013-08-19 14:55:00,78.9,62.8,29.99,SW,236,3.0,7.0,58,0.00,,,0.00,WeatherCatV1.02B3,2013-08-19 18:55:00,
2013-08-19 15:00:00,78.9,62.8,29.99,West,274,0.0,1.0,58,0.00,,,0.00,WeatherCatV1.02B3,2013-08-19 19:00:00,
2013-08-19 15:05:00,78.8,62.8,29.98,WNW,292,4.0,7.0,58,0.00,,,0.00,WeatherCatV1.02B3,2013-08-19 19:05:00,
2013-08-19 15:10:00,78.5,63.0,29.98,SW,234,0.0,9.0,59,0.00,,,0.00,WeatherCatV1.02B3,2013-08-19 19:10:00,
2013-08-19 15:15:00,78.5,63.0,29.98,SW,232,2.0,3.0,59,0.00,,,0.00,WeatherCatV1.02B3,2013-08-19 19:15:00,
2013-08-19 15:20:00,78.6,62.6,29.98,West,262,3.0,6.0,58,0.00,,,0.00,WeatherCatV1.02B3,2013-08-19 19:20:00,
2013-08-19 15:25:00,78.7,62.7,29.98,West,281,5.0,8.0,58,0.00,,,0.00,WeatherCatV1.02B3,2013-08-19 19:25:00,
2013-08-19 15:30:00,78.7,63.6,29.98,West,278,1.0,2.0,60,0.00,,,0.00,WeatherCatV1.02B3,2013-08-19 19:30:00,
2013-08-19 15:35:00,78.6,63.5,29.98,WNW,284,4.0,8.0,60,0.00,,,0.00,WeatherCatV1.02B3,2013-08-19 19:35:00,
2013-08-19 15:40:00,78.5,63.9,29.98,West,279,5.0,7.0,61,0.00,,,0.00,WeatherCatV1.02B3,2013-08-19 19:40:00,
2013-08-19 15:45:00,78.3,63.7,29.98,WNW,284,0.0,3.0,61,0.00,,,0.00,WeatherCatV1.02B3,2013-08-19 19:45:00,
2013-08-19 15:50:00,78.5,64.4,29.98,West,273,0.0,4.0,62,0.00,,,0.00,WeatherCatV1.02B3,2013-08-19 19:50:00,
2013-08-19 15:55:00,78.5,63.4,29.98,WNW,295,4.0,7.0,60,0.00,,,0.00,WeatherCatV1.02B3,2013-08-19 19:55:00,
2013-08-19 16:00:00,78.2,62.7,29.98,West,273,4.0,8.0,59,0.00,,,0.00,WeatherCatV1.02B3,2013-08-19 20:00:00,
2013-08-19 16:05:00,77.9,62.4,29.98,WNW,296,5.0,8.0,59,0.00,,,0.00,WeatherCatV1.02B3,2013-08-19 20:05:00,
2013-08-19 16:10:00,77.8,61.3,29.98,WNW,283,4.0,8.0,57,0.00,,,0.00,WeatherCatV1.02B3,2013-08-19 20:10:00,
2013-08-19 16:15:00,77.6,62.6,29.98,WNW,297,0.0,1.0,60,0.00,,,0.00,WeatherCatV1.02B3,2013-08-19 20:15:00,
2013-08-19 16:20:00,77.7,62.7,29.97,WNW,286,2.0,6.0,60,0.00,,,0.00,WeatherCatV1.02B3,2013-08-19 20:20:00,
2013-08-19 16:27:00,77.8,62.8,29.98,WNW,288,3.0,6.0,60,0.00,,,0.00,WeatherCatV1.02B3,2013-08-19 20:27:00,
2013-08-19 16:32:00,77.6,62.6,29.98,WNW,295,5.0,6.0,60,0.00,,,0.00,WeatherCatV1.02B3,2013-08-19 20:32:00,
2013-08-19 16:37:00,77.5,61.5,29.97,West,261,4.0,8.0,58,0.00,,,0.00,WeatherCatV1.02B3,2013-08-19 20:37:00,
2013-08-19 16:42:00,77.3,61.8,29.97,SSW,212,0.0,5.0,59,0.00,,,0.00,WeatherCatV1.02B3,2013-08-19 20:42:00,
2013-08-19 16:47:00,77.1,62.6,29.97,West,267,0.0,0.0,61,0.00,,,0.00,WeatherCatV1.02B3,2013-08-19 20:47:00,
2013-08-19 16:52:00,77.1,62.1,29.97,West,267,0.0,2.0,60,0.00,,,0.00,WeatherCatV1.02B3,2013-08-19 20:52:00,
2013-08-19 16:57:00,77.0,63.4,29.97,West,267,0.0,0.0,63,0.00,,,0.00,WeatherCatV1.02B3,2013-08-19 20:57:00,
2013-08-19 17:02:00,76.9,62.4,29.96,West,267,0.0,0.0,61,0.00,,,0.00,WeatherCatV1.02B3,2013-08-19 21:02:00,
2013-08-19 17:09:00,76.6,62.1,29.96,WSW,250,5.0,5.0,61,0.00,,,0.00,WeatherCatV1.02B3,2013-08-19 21:09:00,
2013-08-19 17:14:00,76.2,62.2,29.97,WSW,255,5.0,6.0,62,0.00,,,0.00,WeatherCatV1.02B3,2013-08-19 21:14:00,
2013-08-19 17:19:00,76.0,62.0,29.97,WSW,246,0.0,4.0,62,0.00,,,0.00,WeatherCatV1.02B3,2013-08-19 21:19:00,
2013-08-19 17:24:00,75.9,63.7,29.97,WSW,246,0.0,0.0,66,0.00,,,0.00,WeatherCatV1.02B3,2013-08-19 21:24:00,
2013-08-19 17:29:00,75.6,62.1,29.97,WSW,246,0.0,0.0,63,0.00,,,0.00,WeatherCatV1.02B3,2013-08-19 21:29:00,
2013-08-19 17:34:00,75.4,61.0,29.97,WNW,291,0.0,2.0,61,0.00,,,0.00,WeatherCatV1.02B3,2013-08-19 21:34:00,
2013-08-19 17:39:00,75.4,61.5,29.97,WNW,291,0.0,1.0,62,0.00,,,0.00,WeatherCatV1.02B3,2013-08-19 21:39:00,
2013-08-19 17:44:00,75.4,61.5,29.97,WNW,291,0.0,0.0,62,0.00,,,0.00,WeatherCatV1.02B3,2013-08-19 21:44:00,
2013-08-19 17:49:00,75.4,61.9,29.97,WSW,251,1.0,4.0,63,0.00,,,0.00,WeatherCatV1.02B3,2013-08-19 21:49:00,
2013-08-19 17:54:00,75.3,61.4,29.97,SW,221,0.0,3.0,62,0.00,,,0.00,WeatherCatV1.02B3,2013-08-19 21:54:00,
2013-08-19 17:59:00,75.3,61.8,29.98,WSW,245,0.0,3.0,63,0.00,,,0.00,WeatherCatV1.02B3,2013-08-19 21:59:00,
2013-08-19 18:04:00,75.2,62.2,29.98,WSW,249,1.0,5.0,64,0.00,,,0.00,WeatherCatV1.02B3,2013-08-19 22:04:00,
2013-08-19 18:09:00,75.0,62.4,29.98,WSW,249,0.0,1.0,65,0.00,,,0.00,WeatherCatV1.02B3,2013-08-19 22:09:00,
2013-08-19 18:14:00,74.8,62.2,29.98,West,275,0.0,5.0,65,0.00,,,0.00,WeatherCatV1.02B3,2013-08-19 22:14:00,
2013-08-19 18:19:00,74.7,62.6,29.98,WSW,246,2.0,2.0,66,0.00,,,0.00,WeatherCatV1.02B3,2013-08-19 22:19:00,
2013-08-19 18:24:00,74.6,62.5,29.98,West,259,3.0,5.0,66,0.00,,,0.00,WeatherCatV1.02B3,2013-08-19 22:24:00,
2013-08-19 18:29:00,74.5,61.9,29.98,WNW,284,0.0,3.0,65,0.00,,,0.00,WeatherCatV1.02B3,2013-08-19 22:29:00,
2013-08-19 18:34:00,74.4,61.4,29.99,WNW,287,1.0,5.0,64,0.00,,,0.00,WeatherCatV1.02B3,2013-08-19 22:34:00,
2013-08-19 18:39:00,74.4,61.8,29.99,WNW,287,3.0,4.0,65,0.00,,,0.00,WeatherCatV1.02B3,2013-08-19 22:39:00,
2013-08-19 18:44:00,74.3,60.9,29.99,WNW,287,0.0,1.0,63,0.00,,,0.00,WeatherCatV1.02B3,2013-08-19 22:44:00,
2013-08-19 18:49:00,74.3,61.8,29.99,WNW,287,0.0,0.0,65,0.00,,,0.00,WeatherCatV1.02B3,2013-08-19 22:49:00,
2013-08-19 18:54:00,74.2,61.2,29.99,WNW,287,0.0,0.0,64,0.00,,,0.00,WeatherCatV1.02B3,2013-08-19 22:54:00,
2013-08-19 18:59:00,74.1,61.1,29.99,WNW,287,0.0,0.0,64,0.00,,,0.00,WeatherCatV1.02B3,2013-08-19 22:59:00,
2013-08-19 19:04:00,74.0,61.0,29.99,WNW,287,1.0,4.0,64,0.00,,,0.00,WeatherCatV1.02B3,2013-08-19 23:04:00,
2013-08-19 19:09:00,73.9,61.4,29.99,WNW,287,0.0,1.0,65,0.00,,,0.00,WeatherCatV1.02B3,2013-08-19 23:09:00,
2013-08-19 19:14:00,73.8,61.7,29.99,WNW,284,0.0,4.0,66,0.00,,,0.00,WeatherCatV1.02B3,2013-08-19 23:14:00,
2013-08-19 19:19:00,73.6,61.5,29.99,West,267,0.0,2.0,66,0.00,,,0.00,WeatherCatV1.02B3,2013-08-19 23:19:00,
2013-08-19 19:24:00,73.4,61.8,29.99,West,267,0.0,0.0,67,0.00,,,0.00,WeatherCatV1.02B3,2013-08-19 23:24:00,
2013-08-19 19:29:00,73.2,62.0,29.99,West,267,0.0,0.0,68,0.00,,,0.00,WeatherCatV1.02B3,2013-08-19 23:29:00,
2013-08-19 19:34:00,73.0,62.2,29.99,WNW,295,0.0,1.0,69,0.00,,,0.00,WeatherCatV1.02B3,2013-08-19 23:34:00,
2013-08-19 19:39:00,72.8,62.4,29.99,West,280,1.0,4.0,70,0.00,,,0.00,WeatherCatV1.02B3,2013-08-19 23:39:00,
2013-08-19 19:44:00,72.6,62.2,29.99,West,265,0.0,4.0,70,0.00,,,0.00,WeatherCatV1.02B3,2013-08-19 23:44:00,
2013-08-19 19:49:00,72.4,62.0,29.99,WSW,240,0.0,4.0,70,0.00,,,0.00,WeatherCatV1.02B3,2013-08-19 23:49:00,
2013-08-19 19:54:00,72.2,62.3,29.99,West,266,0.0,0.0,71,0.00,,,0.00,WeatherCatV1.02B3,2013-08-19 23:54:00,
2013-08-19 19:59:00,72.1,62.2,29.99,West,271,0.0,3.0,71,0.00,,,0.00,WeatherCatV1.02B3,2013-08-19 23:59:00,
2013-08-19 20:04:00,72.0,62.1,29.99,WSW,251,0.0,5.0,71,0.00,,,0.00,WeatherCatV1.02B3,2013-08-20 00:04:00,
2013-08-19 20:09:00,71.9,62.0,29.99,SW,214,3.0,6.0,71,0.00,,,0.00,WeatherCatV1.02B3,2013-08-20 00:09:00,
2013-08-19 20:14:00,71.8,61.9,29.99,SSW,207,0.0,1.0,71,0.00,,,0.00,WeatherCatV1.02B3,2013-08-20 00:14:00,
2013-08-19 20:19:00,71.7,61.8,29.99,WSW,242,0.0,6.0,71,0.00,,,0.00,WeatherCatV1.02B3,2013-08-20 00:19:00,
2013-08-19 20:24:00,71.7,61.8,30.00,WSW,242,2.0,4.0,71,0.00,,,0.00,WeatherCatV1.02B3,2013-08-20 00:24:00,
2013-08-19 20:29:00,71.6,61.7,30.00,West,275,0.0,3.0,71,0.00,,,0.00,WeatherCatV1.02B3,2013-08-20 00:29:00,
2013-08-19 20:34:00,71.5,62.0,30.00,West,275,0.0,2.0,72,0.00,,,0.00,WeatherCatV1.02B3,2013-08-20 00:34:00,
2013-08-19 20:39:00,71.4,61.9,30.00,West,275,0.0,1.0,72,0.00,,,0.00,WeatherCatV1.02B3,2013-08-20 00:39:00,
2013-08-19 20:44:00,71.2,62.1,30.00,West,263,0.0,0.0,73,0.00,,,0.00,WeatherCatV1.02B3,2013-08-20 00:44:00,
2013-08-19 20:49:00,71.1,62.0,30.00,SW,225,0.0,1.0,73,0.00,,,0.00,WeatherCatV1.02B3,2013-08-20 00:49:00,
2013-08-19 20:54:00,71.0,61.9,30.00,WNW,284,0.0,0.0,73,0.00,,,0.00,WeatherCatV1.02B3,2013-08-20 00:54:00,
2013-08-19 20:59:00,70.9,62.2,30.00,West,267,3.0,6.0,74,0.00,,,0.00,WeatherCatV1.02B3,2013-08-20 00:59:00,
2013-08-19 21:04:00,70.8,62.1,30.00,WSW,250,0.0,0.0,74,0.00,,,0.00,WeatherCatV1.02B3,2013-08-20 01:04:00,
2013-08-19 21:09:00,70.8,62.1,30.00,WNW,299,3.0,6.0,74,0.00,,,0.00,WeatherCatV1.02B3,2013-08-20 01:09:00,
2013-08-19 21:14:00,70.7,62.0,30.00,WNW,293,2.0,6.0,74,0.00,,,0.00,WeatherCatV1.02B3,2013-08-20 01:14:00,
2013-08-19 21:19:00,70.7,62.0,30.00,WSW,240,4.0,4.0,74,0.00,,,0.00,WeatherCatV1.02B3,2013-08-20 01:19:00,
2013-08-19 21:24:00,70.6,61.9,30.00,WNW,284,3.0,8.0,74,0.00,,,0.00,WeatherCatV1.02B3,2013-08-20 01:24:00,
2013-08-19 21:29:00,70.6,61.9,30.00,WNW,290,6.0,8.0,74,0.00,,,0.00,WeatherCatV1.02B3,2013-08-20 01:29:00,
2013-08-19 21:34:00,70.7,61.6,30.00,SW,235,3.0,7.0,73,0.00,,,0.00,WeatherCatV1.02B3,2013-08-20 01:34:00,
2013-08-19 21:39:00,70.7,61.6,30.00,West,271,5.0,9.0,73,0.00,,,0.00,WeatherCatV1.02B3,2013-08-20 01:39:00,
2013-08-19 21:44:00,70.8,61.7,30.00,WSW,254,4.0,9.0,73,0.00,,,0.00,WeatherCatV1.02B3,2013-08-20 01:44:00,
2013-08-19 21:49:00,70.8,61.7,30.00,WSW,250,0.0,2.0,73,0.00,,,0.00,WeatherCatV1.02B3,2013-08-20 01:49:00,
2013-08-19 21:54:00,70.7,62.0,30.00,West,265,4.0,8.0,74,0.00,,,0.00,WeatherCatV1.02B3,2013-08-20 01:54:00,
2013-08-19 21:59:00,70.7,62.0,30.00,WNW,295,5.0,7.0,74,0.00,,,0.00,WeatherCatV1.02B3,2013-08-20 01:59:00,
2013-08-19 22:04:00,70.6,61.9,30.00,WNW,302,5.0,9.0,74,0.00,,,0.00,WeatherCatV1.02B3,2013-08-20 02:04:00,
2013-08-19 22:09:00,70.6,61.9,30.00,WNW,284,2.0,4.0,74,0.00,,,0.00,WeatherCatV1.02B3,2013-08-20 02:09:00,
2013-08-19 22:14:00,70.5,61.8,30.00,West,259,3.0,6.0,74,0.00,,,0.00,WeatherCatV1.02B3,2013-08-20 02:14:00,
2013-08-19 22:19:00,70.5,61.8,30.00,WSW,254,3.0,4.0,74,0.00,,,0.00,WeatherCatV1.02B3,2013-08-20 02:19:00,
2013-08-19 22:24:00,70.5,61.8,30.00,West,279,0.0,4.0,74,0.00,,,0.00,WeatherCatV1.02B3,2013-08-20 02:24:00,
2013-08-19 22:29:00,70.5,61.8,30.00,WNW,290,0.0,4.0,74,0.00,,,0.00,WeatherCatV1.02B3,2013-08-20 02:29:00,
2013-08-19 22:34:00,70.5,61.8,30.00,WNW,285,4.0,5.0,74,0.00,,,0.00,WeatherCatV1.02B3,2013-08-20 02:34:00,
2013-08-19 22:39:00,70.4,61.7,30.00,WNW,284,3.0,5.0,74,0.00,,,0.00,WeatherCatV1.02B3,2013-08-20 02:39:00,
2013-08-19 22:44:00,70.3,62.0,30.00,West,271,3.0,7.0,75,0.00,,,0.00,WeatherCatV1.02B3,2013-08-20 02:44:00,
2013-08-19 22:49:00,70.1,61.8,30.00,WNW,294,1.0,6.0,75,0.00,,,0.00,WeatherCatV1.02B3,2013-08-20 02:49:00,
2013-08-19 22:54:00,70.0,62.1,30.00,WSW,254,2.0,7.0,76,0.00,,,0.00,WeatherCatV1.02B3,2013-08-20 02:54:00,
2013-08-19 22:59:00,69.9,62.0,30.00,West,279,3.0,4.0,76,0.00,,,0.00,WeatherCatV1.02B3,2013-08-20 02:59:00,
2013-08-19 23:04:00,69.7,62.2,30.00,NW,307,3.0,7.0,77,0.00,,,0.00,WeatherCatV1.02B3,2013-08-20 03:04:00,
2013-08-19 23:09:00,69.6,62.1,30.01,WSW,243,3.0,9.0,77,0.00,,,0.00,WeatherCatV1.02B3,2013-08-20 03:09:00,
2013-08-19 23:14:00,69.6,62.1,30.00,SSW,213,2.0,2.0,77,0.00,,,0.00,WeatherCatV1.02B3,2013-08-20 03:14:00,
2013-08-19 23:19:00,69.5,62.3,30.01,West,272,0.0,1.0,78,0.00,,,0.00,WeatherCatV1.02B3,2013-08-20 03:19:00,
2013-08-19 23:24:00,69.4,62.2,30.01,West,261,3.0,6.0,78,0.00,,,0.00,WeatherCatV1.02B3,2013-08-20 03:24:00,
2013-08-19 23:29:00,69.4,62.2,30.01,WNW,289,5.0,5.0,78,0.00,,,0.00,WeatherCatV1.02B3,2013-08-20 03:29:00,
2013-08-19 23:34:00,69.4,62.2,30.01,WSW,244,4.0,6.0,78,0.00,,,0.00,WeatherCatV1.02B3,2013-08-20 03:34:00,
2013-08-19 23:39:00,69.4,62.2,30.01,NNW,329,0.0,1.0,78,0.00,,,0.00,WeatherCatV1.02B3,2013-08-20 03:39:00,
2013-08-19 23:44:00,69.4,62.2,30.01,WSW,241,0.0,11.0,78,0.00,,,0.00,WeatherCatV1.02B3,2013-08-20 03:44:00,
2013-08-19 23:49:00,69.3,62.1,30.00,West,267,3.0,6.0,78,0.00,,,0.00,WeatherCatV1.02B3,2013-08-20 03:49:00,
2013-08-19 23:54:00,69.1,62.3,30.00,SW,236,1.0,4.0,79,0.00,,,0.00,WeatherCatV1.02B3,2013-08-20 03:54:00,
2013-08-19 23:59:00,69.0,62.2,30.00,West,266,3.0,5.0,79,0.00,,,0.00,WeatherCatV1.02B3,2013-08-20 03:59:00,